AP893 Weather Reports


time (UTC)temp
C
wind
direction
speed
KPH
gust
KPH
rain 1hr
cm
rain 24hr
cm
rain mn
cm
humidity
%
barometer
mb
20260831023009 25 256 0.0 0.0 0.00 0.00 0.00 31 1016.3
20260831022010 25 256 0.0 0.0 0.00 0.00 0.00 31 1016.3
20260831021009 25 256 0.0 0.0 0.00 0.00 0.00 29 1016.3
20260831020010 26 256 0.0 0.0 0.00 0.00 0.00 29 1016.3
20260831015010 26 256 0.0 0.0 0.00 0.00 0.00 28 1016.3
20260831014010 26 256 0.0 0.0 0.00 0.00 0.00 28 1016.3
20260831013010 27 256 0.0 0.0 0.00 0.00 0.00 27 1016.4
20260831012010 27 256 0.0 0.0 0.00 0.00 0.00 26 1016.6
20260831011010 27 256 0.0 9.7 0.00 0.00 0.00 25 1016.6
20260831010010 27 24 1.6 11.3 0.00 0.00 0.00 24 1016.6
20260831005010 28 0 0.0 8.0 0.00 0.00 0.00 24 1016.6
20260831004010 28 230 3.2 11.3 0.00 0.00 0.00 22 1016.7
20260831003010 29 254 0.0 11.3 0.00 0.00 0.00 22 1016.7
20260831002010 28 219 0.0 9.7 0.00 0.00 0.00 22 1016.7
20260831001010 29 332 0.0 14.5 0.00 0.00 0.00 22 1016.7
20260831000010 29 267 0.0 11.3 0.00 0.00 0.00 22 1016.8
20260830235010 29 240 4.8 14.5 0.00 0.00 0.00 22 1016.8
20260830234010 29 356 0.0 9.7 0.00 0.00 0.00 22 1016.8
20260830233010 29 271 1.6 14.5 0.00 0.00 0.00 21 1016.9
20260830232009 29 260 1.6 14.5 0.00 0.00 0.00 22 1016.9
20260830231009 30 353 9.7 16.1 0.00 0.00 0.00 21 1017.0
20260830230009 29 289 4.8 11.3 0.00 0.00 0.00 21 1017.0
20260830225010 28 295 4.8 16.1 0.00 0.00 0.00 22 1017.1
20260830223009 28 223 0.0 11.3 0.00 0.00 0.00 23 1017.2
20260830222009 28 322 4.8 14.5 0.00 0.00 0.00 23 1017.2
20260830221010 29 324 3.2 16.1 0.00 0.00 0.00 22 1017.3
20260830215009 30 124 0.0 9.7 0.00 0.00 0.00 21 1017.5
20260830214009 29 148 1.6 12.9 0.00 0.00 0.00 22 1017.8
20260830212010 28 269 0.0 19.3 0.00 0.00 0.00 22 1017.8
20260830210009 29 267 1.6 16.1 0.00 0.00 0.00 21 1017.8
20260830205010 30 350 3.2 24.1 0.00 0.00 0.00 20 1017.8
20260830204009 30 244 3.2 12.9 0.00 0.00 0.00 20 1017.9
20260830202009 29 256 8.0 16.1 0.00 0.00 0.00 21 1017.8
20260830201010 30 266 4.8 16.1 0.00 0.00 0.00 20 1017.7
20260830200010 30 282 3.2 12.9 0.00 0.00 0.00 20 1017.7
20260830195009 30 269 4.8 20.9 0.00 0.00 0.00 20 1017.7
20260830194009 30 315 3.2 19.3 0.00 0.00 0.00 20 1017.7
20260830193010 30 144 3.2 14.5 0.00 0.00 0.00 20 1017.8
20260830192009 30 307 8.0 19.3 0.00 0.00 0.00 20 1017.8
20260830191009 30 292 3.2 12.9 0.00 0.00 0.00 20 1017.8
20260830190009 30 116 1.6 16.1 0.00 0.00 0.00 21 1017.8
20260830185009 30 162 3.2 14.5 0.00 0.00 0.00 21 1017.9
20260830184009 30 79 1.6 16.1 0.00 0.00 0.00 21 1017.9
20260830182009 30 227 0.0 12.9 0.00 0.00 0.00 23 1017.9
20260830180009 29 355 4.8 11.3 0.00 0.00 0.00 24 1017.8
20260830175010 29 154 1.6 12.9 0.00 0.00 0.00 24 1017.7
20260830174010 29 126 0.0 12.9 0.00 0.00 0.00 25 1017.7
20260830173011 28 191 1.6 11.3 0.00 0.00 0.00 25 1017.7
20260830172010 28 116 0.0 0.0 0.00 0.00 0.00 25 1017.5
20260830171010 27 116 1.6 8.0 0.00 0.00 0.00 25 1017.4
20260830165009 26 125 3.2 9.7 0.00 0.00 0.00 27 1017.3
20260830164009 26 82 0.0 9.7 0.00 0.00 0.00 28 1017.4
20260830163012 26 158 6.4 12.9 0.00 0.00 0.00 28 1017.3
20260830162009 25 128 1.6 9.7 0.00 0.00 0.00 29 1017.3
20260830161010 25 134 0.0 0.0 0.00 0.00 0.00 31 1017.2
20260830160009 23 134 1.6 8.0 0.00 0.00 0.00 35 1017.2
20260830155009 21 80 0.0 4.8 0.00 0.00 0.00 38 1017.2
20260830154009 20 107 0.0 9.7 0.00 0.00 0.00 41 1017.2
20260830153009 20 126 0.0 8.0 0.00 0.00 0.00 43 1017.2
20260830152010 19 120 1.6 9.7 0.00 0.00 0.00 45 1017.2
20260830150010 17 124 0.0 4.8 0.00 0.00 0.00 49 1017.1
20260830145010 16 136 3.2 9.7 0.00 0.00 0.00 50 1017.1
20260830144009 15 146 1.6 9.7 0.00 0.00 0.00 54 1017.0
20260830143010 15 140 0.0 8.0 0.00 0.00 0.00 56 1016.9
20260830142010 14 107 0.0 0.0 0.00 0.00 0.00 59 1016.8
20260830141010 13 107 0.0 4.8 0.00 0.00 0.00 60 1016.7
20260830140010 13 145 0.0 0.0 0.00 0.00 0.00 61 1016.6
20260830135010 13 145 0.0 4.8 0.00 0.00 0.00 62 1016.4
20260830134010 13 151 0.0 0.0 0.00 0.00 0.00 63 1016.3
20260830133010 13 151 0.0 0.0 0.00 0.00 0.00 63 1016.2
20260830132010 13 151 0.0 0.0 0.00 0.00 0.00 65 1016.1
20260830130009 13 151 0.0 0.0 0.00 0.00 0.00 63 1016.1
20260830125009 13 151 0.0 8.0 0.00 0.00 0.00 64 1016.1
20260830124009 13 152 0.0 0.0 0.00 0.00 0.00 65 1016.1
20260830123009 13 152 0.0 0.0 0.00 0.00 0.00 64 1016.0
20260830122010 13 152 0.0 0.0 0.00 0.00 0.00 65 1016.0
20260830121009 13 152 0.0 0.0 0.00 0.00 0.00 65 1016.0
20260830115009 13 152 0.0 0.0 0.00 0.00 0.00 63 1016.0
20260830113010 14 152 0.0 3.2 0.00 0.00 0.00 62 1016.0
20260830112010 13 134 0.0 3.2 0.00 0.00 0.00 63 1016.1
20260830111010 13 158 0.0 0.0 0.00 0.00 0.00 63 1016.1
20260830110009 13 158 0.0 0.0 0.00 0.00 0.00 63 1016.2
20260830105010 13 158 0.0 4.8 0.00 0.00 0.00 64 1016.1
20260830104010 13 214 1.6 8.0 0.00 0.00 0.00 66 1016.2
20260830102009 13 154 0.0 0.0 0.00 0.00 0.00 69 1016.1
20260830101009 13 154 0.0 11.3 0.00 0.00 0.00 70 1016.2
20260830100009 12 93 0.0 8.0 0.00 0.00 0.00 71 1016.2
20260830095009 12 294 0.0 0.0 0.00 0.00 0.00 71 1016.3
20260830093010 13 294 0.0 0.0 0.00 0.00 0.00 70 1016.3
20260830092010 13 294 0.0 0.0 0.00 0.00 0.00 69 1016.4
20260830091009 13 294 0.0 0.0 0.00 0.00 0.00 68 1016.6
20260830090010 13 294 0.0 0.0 0.00 0.00 0.00 68 1016.6
20260830085010 13 294 0.0 0.0 0.00 0.00 0.00 67 1016.6
20260830082010 13 294 0.0 0.0 0.00 0.00 0.00 64 1016.7
20260830081010 13 294 0.0 0.0 0.00 0.00 0.00 63 1016.9
20260830080009 13 294 0.0 0.0 0.00 0.00 0.00 63 1016.9
20260830075009 13 294 0.0 0.0 0.00 0.00 0.00 63 1016.9
20260830074009 13 294 0.0 0.0 0.00 0.00 0.00 63 1016.9
20260830073010 13 294 0.0 0.0 0.00 0.00 0.00 63 1016.9
20260830071009 13 294 0.0 0.0 0.00 0.00 0.00 61 1017.0
20260830070010 13 294 0.0 0.0 0.00 0.00 0.00 60 1017.0
20260830065009 14 294 0.0 0.0 0.00 0.00 0.00 60 1017.1
20260830064009 14 294 0.0 0.0 0.00 0.00 0.00 59 1017.1
20260830063010 14 294 0.0 0.0 0.00 0.00 0.00 58 1017.1
20260830062010 15 294 0.0 0.0 0.00 0.00 0.00 57 1017.1
20260830061010 15 294 0.0 0.0 0.00 0.00 0.00 56 1017.1
20260830060009 15 294 0.0 0.0 0.00 0.00 0.00 56 1017.2
20260830055009 15 294 0.0 0.0 0.00 0.00 0.00 53 1017.3
20260830054010 16 294 0.0 0.0 0.00 0.00 0.00 52 1017.4
20260830053009 16 294 0.0 0.0 0.00 0.00 0.00 52 1017.5
20260830052009 16 294 0.0 0.0 0.00 0.00 0.00 51 1017.8
20260830051009 17 294 0.0 0.0 0.00 0.00 0.00 50 1018.0
20260830045010 18 294 0.0 0.0 0.00 0.00 0.00 48 1018.0
20260830044009 18 294 0.0 0.0 0.00 0.00 0.00 47 1018.0
20260830043009 18 294 0.0 0.0 0.00 0.00 0.00 45 1018.0
20260830042009 19 294 0.0 0.0 0.00 0.00 0.00 45 1018.0
20260830041009 20 294 0.0 0.0 0.00 0.00 0.00 42 1018.0
20260830040009 20 294 0.0 0.0 0.00 0.00 0.00 41 1018.1
20260830035009 21 294 0.0 0.0 0.00 0.00 0.00 40 1018.1
20260830034009 22 294 0.0 0.0 0.00 0.00 0.00 38 1018.0
20260830033009 22 294 0.0 0.0 0.00 0.00 0.00 35 1017.9
20260830032009 23 294 0.0 0.0 0.00 0.00 0.00 34 1017.8
20260830031010 23 294 0.0 0.0 0.00 0.00 0.00 32 1017.9
20260830030011 23 294 0.0 0.0 0.00 0.00 0.00 32 1017.8
20260830024010 25 294 0.0 0.0 0.00 0.00 0.00 30 1017.8